GW3829 Weather Reports


Display with metric or nautical units.
time (UTC)temp
F
wind
direction
speed
MPH
gust
MPH
rain 1hr
in
rain 24hr
in
rain mn
in
humidity
%
barometer
mb
20260904234554 68 346 15.0 16.0 0.00 0.00 0.00 38 1012.0
20260904234051 68 343 15.0 17.0 0.00 0.00 0.00 38 1012.1
20260904233550 69 339 14.0 18.0 0.00 0.00 0.00 38 1012.2
20260904233047 68 350 12.0 15.0 0.00 0.00 0.00 38 1012.1
20260904232543 69 322 13.0 15.0 0.00 0.00 0.00 38 1012.2
20260904232039 70 332 18.0 21.0 0.00 0.00 0.00 36 1012.0
20260904231535 70 358 15.0 17.0 0.00 0.00 0.00 36 1011.9
20260904231030 69 346 12.0 15.0 0.00 0.00 0.00 36 1011.9
20260904230529 70 331 12.0 15.0 0.00 0.00 0.00 37 1012.0
20260904230025 69 333 17.0 20.0 0.00 0.00 0.00 36 1011.9
20260904225522 68 317 17.0 21.0 0.00 0.00 0.00 37 1011.8
20260904225021 68 317 12.0 15.0 0.00 0.00 0.00 38 1011.7
20260904224517 69 334 17.0 18.0 0.00 0.00 0.00 38 1011.8
20260904224017 71 318 16.0 20.0 0.00 0.00 0.00 35 1011.3
20260904223516 71 307 16.0 22.0 0.00 0.00 0.00 36 1011.3
20260904223012 71 333 20.0 23.0 0.00 0.00 0.00 35 1011.0
20260904222508 72 336 19.0 21.0 0.00 0.00 0.00 35 1011.1
20260904222008 71 317 16.0 21.0 0.00 0.00 0.00 35 1011.2
20260904221502 71 306 19.0 21.0 0.00 0.00 0.00 35 1011.1
20260904220958 71 320 19.0 23.0 0.00 0.00 0.00 35 1011.0
20260904220456 71 288 16.0 18.0 0.00 0.00 0.00 35 1011.1
20260904215952 71 321 18.0 22.0 0.00 0.00 0.00 36 1010.9
20260904215447 71 319 17.0 21.0 0.00 0.00 0.00 36 1011.0
20260904214943 71 331 20.0 23.0 0.00 0.00 0.00 36 1010.8
20260904214438 71 325 18.0 22.0 0.00 0.00 0.00 35 1010.8
20260904213933 72 339 14.0 16.0 0.00 0.00 0.00 36 1010.7
20260904213426 71 347 20.0 22.0 0.00 0.00 0.00 36 1010.7
20260904212923 72 306 11.0 15.0 0.00 0.00 0.00 36 1010.3
20260904212422 71 323 13.0 18.0 0.00 0.00 0.00 36 1010.6
20260904211918 72 311 14.0 16.0 0.00 0.00 0.00 36 1010.3
20260904211412 71 347 16.0 18.0 0.00 0.00 0.00 37 1010.1
20260904210908 71 310 15.0 18.0 0.00 0.00 0.00 37 1010.6
20260904210407 70 325 16.0 18.0 0.00 0.00 0.00 38 1010.5
20260904205903 69 311 14.0 20.0 0.00 0.00 0.00 40 1010.2
20260904205358 70 315 14.0 17.0 0.00 0.00 0.00 37 1010.1
20260904204855 70 326 15.0 17.0 0.00 0.00 0.00 39 1010.3
20260904204351 69 7 12.0 15.0 0.00 0.00 0.00 39 1009.9
20260904203847 69 345 16.0 17.0 0.00 0.00 0.00 40 1009.9
20260904203343 69 336 16.0 20.0 0.00 0.00 0.00 40 1009.9
20260904202838 70 336 18.0 22.0 0.00 0.00 0.00 39 1010.0
20260904202335 69 311 18.0 20.0 0.00 0.00 0.00 40 1009.9
20260904201830 70 322 17.0 20.0 0.00 0.00 0.00 39 1009.8
20260904201330 70 349 14.0 17.0 0.00 0.00 0.00 41 1009.7
20260904200825 68 359 17.0 18.0 0.00 0.00 0.00 41 1009.7
20260904200324 69 5 16.0 20.0 0.00 0.00 0.00 40 1009.4
20260904195819 69 347 13.0 16.0 0.00 0.00 0.00 41 1009.2
20260904195317 69 327 13.0 15.0 0.00 0.00 0.00 41 1009.0
20260904194812 69 336 13.0 16.0 0.00 0.00 0.00 41 1009.2
20260904194311 68 328 11.0 14.0 0.00 0.00 0.00 43 1009.2
20260904193807 68 323 11.0 13.0 0.00 0.00 0.00 42 1009.2
20260904193302 69 340 13.0 15.0 0.00 0.00 0.00 41 1008.9
20260904192757 69 337 12.0 14.0 0.00 0.00 0.00 41 1008.9
20260904192252 69 343 9.0 11.0 0.00 0.00 0.00 41 1009.0
20260904191749 69 18 10.0 11.0 0.00 0.00 0.00 41 1008.8
20260904191245 69 347 11.0 11.0 0.00 0.00 0.00 40 1008.8
20260904190741 69 336 6.0 8.0 0.00 0.00 0.00 40 1008.7
20260904190237 69 9 9.0 10.0 0.00 0.00 0.00 40 1008.6
20260904185733 69 330 6.0 6.0 0.00 0.00 0.00 41 1008.6
20260904185228 70 352 10.0 11.0 0.00 0.00 0.00 40 1008.8
20260904184726 68 21 7.0 8.0 0.00 0.00 0.00 42 1008.6
20260904184223 68 331 8.0 9.0 0.00 0.00 0.00 42 1008.7
20260904183718 67 344 11.0 13.0 0.00 0.00 0.00 43 1008.4
20260904183213 66 37 9.0 11.0 0.00 0.00 0.00 44 1008.7
20260904182708 67 323 10.0 11.0 0.00 0.00 0.00 43 1008.7
20260904182209 67 7 10.0 11.0 0.00 0.00 0.00 44 1008.7
20260904181704 67 3 9.0 10.0 0.00 0.00 0.00 43 1008.6
20260904181204 68 10 8.0 9.0 0.00 0.00 0.00 43 1008.4
20260904180659 68 14 7.0 9.0 0.00 0.00 0.00 44 1008.6
20260904180154 70 180 1.0 1.0 0.00 0.00 0.00 37 1008.5
20260904175653 69 234 2.0 2.0 0.00 0.00 0.00 37 1008.5
20260904175152 69 164 2.0 2.0 0.00 0.00 0.00 37 1008.2
20260904174647 69 92 3.0 3.0 0.00 0.00 0.00 37 1008.4
20260904174143 70 254 0.0 0.0 0.00 0.00 0.00 37 1008.4
20260904173638 70 253 1.0 1.0 0.00 0.00 0.00 39 1008.1
20260904173128 70 260 1.0 1.0 0.00 0.00 0.00 38 1008.1
20260904172625 69 232 3.0 3.0 0.00 0.00 0.00 38 1008.1
20260904172123 69 267 3.0 3.0 0.00 0.00 0.00 39 1008.2
20260904171619 69 228 6.0 8.0 0.00 0.00 0.00 39 1008.0
20260904171115 69 248 5.0 8.0 0.00 0.00 0.00 39 1007.9
20260904170611 69 214 5.0 6.0 0.00 0.00 0.00 39 1008.2
20260904170106 69 247 6.0 7.0 0.00 0.00 0.00 38 1007.9
20260904165604 69 242 0.0 0.0 0.00 0.00 0.00 38 1007.9
20260904165103 69 228 1.0 2.0 0.00 0.00 0.00 39 1007.8
20260904164558 68 254 2.0 2.0 0.00 0.00 0.00 39 1008.0
20260904164054 68 264 3.0 3.0 0.00 0.00 0.00 40 1007.7
20260904163549 67 276 4.0 5.0 0.00 0.00 0.00 40 1007.9
20260904163044 67 296 4.0 5.0 0.00 0.00 0.00 40 1007.9
20260904162538 66 323 3.0 3.0 0.00 0.00 0.00 42 1007.9
20260904162034 66 294 2.0 2.0 0.00 0.00 0.00 42 1007.4
20260904161529 65 325 2.0 2.0 0.00 0.00 0.00 43 1007.8
20260904161025 65 300 2.0 2.0 0.00 0.00 0.00 44 1007.8
20260904160519 64 358 3.0 3.0 0.00 0.00 0.00 44 1007.6
20260904160015 64 295 2.0 2.0 0.00 0.00 0.00 46 1007.4
20260904155509 64 324 2.0 2.0 0.00 0.00 0.00 46 1007.4
20260904155008 64 353 3.0 3.0 0.00 0.00 0.00 46 1007.3
20260904154501 64 32 4.0 5.0 0.00 0.00 0.00 46 1006.9
20260904153956 64 48 5.0 7.0 0.00 0.00 0.00 45 1006.7
20260904153451 64 23 4.0 6.0 0.00 0.00 0.00 46 1006.8
20260904152948 64 47 3.0 5.0 0.00 0.00 0.00 46 1006.8
20260904152443 64 19 7.0 8.0 0.00 0.00 0.00 46 1006.7
20260904151943 63 35 4.0 5.0 0.00 0.00 0.00 48 1006.8
20260904151438 63 20 8.0 9.0 0.00 0.00 0.00 47 1006.8
20260904150932 62 25 7.0 8.0 0.00 0.00 0.00 47 1006.7
20260904150422 62 34 5.0 6.0 0.00 0.00 0.00 47 1006.7
20260904145920 63 18 7.0 9.0 0.00 0.00 0.00 48 1006.8
20260904145417 62 3 5.0 6.0 0.00 0.00 0.00 50 1006.6
20260904144912 61 0 8.0 9.0 0.00 0.00 0.00 50 1006.4
20260904144408 60 353 6.0 7.0 0.00 0.00 0.00 52 1006.7
20260904143903 60 342 7.0 8.0 0.00 0.00 0.00 53 1006.9
20260904143359 59 323 6.0 7.0 0.00 0.00 0.00 55 1006.9
20260904142855 58 338 5.0 5.0 0.00 0.00 0.00 55 1007.0
20260904142351 57 350 4.0 5.0 0.00 0.00 0.00 57 1006.7
20260904141850 57 16 5.0 6.0 0.00 0.00 0.00 57 1006.6
20260904141346 57 2 4.0 6.0 0.00 0.00 0.00 57 1006.9
20260904140842 57 326 5.0 6.0 0.00 0.00 0.00 58 1006.7
20260904140337 57 343 5.0 6.0 0.00 0.00 0.00 59 1006.7
20260904135836 56 29 4.0 5.0 0.00 0.00 0.00 60 1006.5
20260904135331 55 9 4.0 5.0 0.00 0.00 0.00 60 1006.7
20260904134828 55 1 4.0 5.0 0.00 0.00 0.00 61 1007.0
20260904134327 55 325 4.0 5.0 0.00 0.00 0.00 61 1007.1
20260904133821 54 335 4.0 5.0 0.00 0.00 0.00 62 1006.9
20260904133317 53 317 5.0 5.0 0.00 0.00 0.00 64 1007.0
20260904132817 53 321 5.0 6.0 0.00 0.00 0.00 65 1007.0
20260904132312 52 333 5.0 6.0 0.00 0.00 0.00 66 1006.9
20260904131811 51 323 4.0 6.0 0.00 0.00 0.00 67 1006.6
20260904131308 51 2 5.0 6.0 0.00 0.00 0.00 68 1006.6
20260904130807 50 335 3.0 3.0 0.00 0.00 0.00 69 1006.6
20260904130307 50 339 4.0 5.0 0.00 0.00 0.00 69 1006.7
20260904125803 50 335 3.0 3.0 0.00 0.00 0.00 68 1006.4
20260904125259 50 4 3.0 3.0 0.00 0.00 0.00 68 1006.3
20260904124758 51 340 2.0 2.0 0.00 0.00 0.00 67 1006.5
20260904124255 51 343 3.0 3.0 0.00 0.00 0.00 67 1006.8
20260904123749 52 339 3.0 3.0 0.00 0.00 0.00 66 1006.6
20260904123244 51 349 5.0 6.0 0.00 0.00 0.00 68 1006.4
20260904122739 51 336 4.0 5.0 0.00 0.00 0.00 68 1006.5
20260904122234 50 351 3.0 3.0 0.00 0.00 0.00 68 1006.6
20260904121730 50 350 3.0 3.0 0.00 0.00 0.00 70 1006.4
20260904121225 50 325 3.0 3.0 0.00 0.00 0.00 70 1006.6
20260904120722 50 318 2.0 2.0 0.00 0.00 0.00 70 1006.6
20260904120217 50 307 3.0 3.0 0.00 0.00 0.00 68 1006.8
20260904115712 50 320 4.0 5.0 0.00 0.00 0.00 68 1006.7
20260904115207 50 323 3.0 3.0 0.00 0.00 0.00 68 1006.8
20260904114706 51 307 2.0 2.0 0.00 0.00 0.00 66 1006.7
20260904114201 52 303 2.0 3.0 0.00 0.00 0.00 65 1006.7
20260904113656 52 318 3.0 3.0 0.00 0.00 0.00 65 1006.7
20260904113154 53 332 3.0 3.0 0.00 0.00 0.00 63 1006.7
20260904112650 53 346 3.0 3.0 0.00 0.00 0.00 63 1006.5
20260904112146 53 328 2.0 2.0 0.00 0.00 0.00 64 1006.6
20260904111641 53 8 3.0 3.0 0.00 0.00 0.00 65 1006.7
20260904111136 53 328 3.0 3.0 0.00 0.00 0.00 64 1006.8
20260904110632 53 319 4.0 5.0 0.00 0.00 0.00 64 1006.7
20260904110132 53 356 3.0 3.0 0.00 0.00 0.00 63 1006.8
20260904105626 53 14 1.0 2.0 0.00 0.00 0.00 63 1006.6
20260904105121 53 304 1.0 2.0 0.00 0.00 0.00 64 1006.9
20260904104617 53 302 3.0 3.0 0.00 0.00 0.00 63 1006.9
20260904104112 52 340 3.0 3.0 0.00 0.00 0.00 64 1007.0
20260904103608 53 338 2.0 2.0 0.00 0.00 0.00 64 1006.9
20260904103104 53 298 3.0 3.0 0.00 0.00 0.00 64 1007.0
20260904102600 52 305 3.0 3.0 0.00 0.00 0.00 65 1007.1
20260904102055 52 320 4.0 5.0 0.00 0.00 0.00 66 1007.3
20260904101552 52 315 6.0 6.0 0.00 0.00 0.00 66 1007.4
20260904101047 52 308 4.0 5.0 0.00 0.00 0.00 65 1007.4
20260904100543 51 314 4.0 5.0 0.00 0.00 0.00 66 1007.4
20260904100037 50 329 4.0 5.0 0.00 0.00 0.00 68 1007.4
20260904095532 49 318 4.0 5.0 0.00 0.00 0.00 70 1007.4
20260904095028 48 312 4.0 5.0 0.00 0.00 0.00 71 1007.4
20260904094522 48 302 4.0 6.0 0.00 0.00 0.00 73 1007.4
20260904094017 47 301 3.0 3.0 0.00 0.00 0.00 74 1007.7
20260904093514 47 303 3.0 3.0 0.00 0.00 0.00 74 1007.8
20260904093009 47 296 3.0 3.0 0.00 0.00 0.00 73 1007.7
20260904092505 47 315 2.0 2.0 0.00 0.00 0.00 73 1007.4
20260904092001 49 321 4.0 5.0 0.00 0.00 0.00 70 1007.8
20260904091456 49 289 4.0 5.0 0.00 0.00 0.00 68 1007.8
20260904090950 49 307 4.0 5.0 0.00 0.00 0.00 69 1007.8
20260904090446 49 315 4.0 5.0 0.00 0.00 0.00 70 1007.9
20260904085941 49 321 4.0 5.0 0.00 0.00 0.00 69 1007.8
20260904085436 50 314 3.0 3.0 0.00 0.00 0.00 67 1008.0
20260904084936 50 305 2.0 2.0 0.00 0.00 0.00 68 1008.4
20260904084432 50 288 1.0 1.0 0.00 0.00 0.00 68 1008.1
20260904083928 50 288 1.0 1.0 0.00 0.00 0.00 69 1008.2
20260904083424 50 316 3.0 3.0 0.00 0.00 0.00 67 1008.0
20260904082920 51 309 3.0 3.0 0.00 0.00 0.00 67 1008.1
20260904082420 50 305 3.0 3.0 0.00 0.00 0.00 67 1008.1
20260904081915 51 310 2.0 2.0 0.00 0.00 0.00 67 1008.0
20260904081410 51 304 2.0 2.0 0.00 0.00 0.00 67 1008.2
20260904080906 52 310 3.0 3.0 0.00 0.00 0.00 66 1008.1
20260904080401 51 302 2.0 2.0 0.00 0.00 0.00 67 1008.2
20260904075857 53 304 3.0 3.0 0.00 0.00 0.00 64 1008.5
20260904075353 53 305 2.0 2.0 0.00 0.00 0.00 64 1008.5
20260904074851 54 296 3.0 3.0 0.00 0.00 0.00 63 1008.7
20260904074346 55 305 2.0 2.0 0.00 0.00 0.00 61 1008.6
20260904073842 55 311 3.0 3.0 0.00 0.00 0.00 60 1008.2
20260904073337 54 302 3.0 3.0 0.00 0.00 0.00 63 1008.6
20260904072833 54 288 2.0 2.0 0.00 0.00 0.00 64 1008.5
20260904072332 55 282 1.0 1.0 0.00 0.00 0.00 64 1008.5
20260904071828 54 281 2.0 2.0 0.00 0.00 0.00 64 1008.5
20260904071323 54 286 2.0 2.0 0.00 0.00 0.00 64 1008.6
20260904070818 54 283 0.0 1.0 0.00 0.00 0.00 64 1008.5
20260904070316 54 283 1.0 1.0 0.00 0.00 0.00 64 1008.5
20260904065812 54 282 0.0 1.0 0.00 0.00 0.00 64 1008.6
20260904065308 54 281 0.0 1.0 0.00 0.00 0.00 64 1008.7
20260904064803 54 294 1.0 1.0 0.00 0.00 0.00 63 1008.4
20260904064259 54 301 2.0 2.0 0.00 0.00 0.00 64 1008.6
20260904063755 54 310 3.0 3.0 0.00 0.00 0.00 63 1008.7
20260904063251 55 307 3.0 3.0 0.00 0.00 0.00 61 1008.5
20260904062746 55 312 3.0 3.0 0.00 0.00 0.00 61 1008.5
20260904062242 54 306 3.0 3.0 0.00 0.00 0.00 62 1008.6
20260904061737 54 313 3.0 5.0 0.00 0.00 0.00 61 1008.5
20260904061233 54 290 3.0 3.0 0.00 0.00 0.00 62 1008.5
20260904060730 54 313 4.0 5.0 0.00 0.00 0.00 62 1008.6
20260904060225 54 293 3.0 3.0 0.00 0.00 0.00 62 1008.5
20260904055720 54 295 3.0 3.0 0.00 0.00 0.00 62 1008.5
20260904055215 54 295 4.0 5.0 0.00 0.00 0.00 61 1008.5
20260904054711 55 295 4.0 5.0 0.00 0.00 0.00 60 1008.7
20260904054207 55 290 3.0 3.0 0.00 0.00 0.00 59 1008.8
20260904053702 56 301 3.0 3.0 0.00 0.00 0.00 58 1008.7
20260904053202 56 292 4.0 5.0 0.00 0.00 0.00 57 1009.0
20260904052658 56 273 4.0 5.0 0.00 0.00 0.00 58 1009.1
20260904052154 55 281 2.0 3.0 0.00 0.00 0.00 60 1008.9
20260904051650 55 281 2.0 2.0 0.00 0.00 0.00 59 1009.2
20260904051144 55 287 4.0 5.0 0.00 0.00 0.00 59 1009.2
20260904050640 55 267 0.0 1.0 0.00 0.00 0.00 60 1009.4
20260904050136 54 268 1.0 1.0 0.00 0.00 0.00 61 1009.4
20260904045636 54 248 1.0 1.0 0.00 0.00 0.00 62 1009.2
20260904045131 54 257 0.0 0.0 0.00 0.00 0.00 60 1009.2
20260904044626 53 268 1.0 1.0 0.00 0.00 0.00 61 1009.0
20260904044123 53 266 2.0 2.0 0.00 0.00 0.00 62 1008.9
20260904043619 53 278 2.0 2.0 0.00 0.00 0.00 61 1009.0
20260904043114 52 278 2.0 2.0 0.00 0.00 0.00 62 1009.4
20260904042610 53 285 1.0 2.0 0.00 0.00 0.00 61 1009.1
20260904042105 52 275 2.0 2.0 0.00 0.00 0.00 60 1008.9
20260904041601 52 291 3.0 3.0 0.00 0.00 0.00 61 1008.9
20260904041057 52 292 3.0 3.0 0.00 0.00 0.00 61 1009.2
20260904040557 52 271 1.0 1.0 0.00 0.00 0.00 61 1009.1
20260904040054 51 285 3.0 5.0 0.00 0.00 0.00 61 1009.0
20260904035549 51 290 3.0 3.0 0.00 0.00 0.00 62 1008.9
20260904035048 51 302 5.0 6.0 0.00 0.00 0.00 62 1008.5
20260904034543 52 298 4.0 5.0 0.00 0.00 0.00 60 1008.8
20260904034038 52 291 4.0 5.0 0.00 0.00 0.00 60 1008.9
20260904033534 53 289 4.0 5.0 0.00 0.00 0.00 58 1008.8
20260904033032 53 294 3.0 5.0 0.00 0.00 0.00 58 1009.0
20260904032527 53 299 3.0 3.0 0.00 0.00 0.00 57 1009.1
20260904032026 53 294 3.0 3.0 0.00 0.00 0.00 58 1008.9
20260904031520 53 292 5.0 5.0 0.00 0.00 0.00 57 1008.9
20260904031017 54 300 3.0 3.0 0.00 0.00 0.00 56 1009.2
20260904030512 54 271 0.0 0.0 0.00 0.00 0.00 55 1008.8
20260904030007 54 285 2.0 2.0 0.00 0.00 0.00 55 1008.8
20260904025503 53 292 2.0 2.0 0.00 0.00 0.00 56 1008.8
20260904024957 53 307 3.0 3.0 0.00 0.00 0.00 56 1008.8
20260904024453 54 317 4.0 5.0 0.00 0.00 0.00 55 1008.8
20260904023948 54 304 3.0 3.0 0.00 0.00 0.00 56 1008.5
20260904023445 55 328 3.0 3.0 0.00 0.00 0.00 55 1008.5
20260904022944 56 308 3.0 3.0 0.00 0.00 0.00 54 1008.6
20260904022440 57 314 3.0 3.0 0.00 0.00 0.00 52 1008.6
20260904021936 60 330 4.0 5.0 0.00 0.00 0.00 49 1008.6
20260904021432 60 320 3.0 3.0 0.00 0.00 0.00 47 1008.5
20260904020927 60 302 2.0 2.0 0.00 0.00 0.00 48 1008.4
20260904020422 61 312 2.0 2.0 0.00 0.00 0.00 46 1008.4
20260904015920 61 298 2.0 2.0 0.00 0.00 0.00 46 1008.9
20260904015417 62 331 2.0 2.0 0.00 0.00 0.00 46 1008.5
20260904014915 63 255 1.0 2.0 0.00 0.00 0.00 45 1008.4
20260904014411 64 284 3.0 3.0 0.00 0.00 0.00 44 1008.4
20260904013906 65 259 3.0 3.0 0.00 0.00 0.00 43 1008.2
20260904013402 65 288 3.0 3.0 0.00 0.00 0.00 42 1008.2
20260904012857 67 254 1.0 1.0 0.00 0.00 0.00 41 1008.2
20260904012351 68 291 4.0 5.0 0.00 0.00 0.00 40 1008.2
20260904011851 68 260 1.0 2.0 0.00 0.00 0.00 39 1008.2
20260904011346 68 267 3.0 3.0 0.00 0.00 0.00 39 1008.4
20260904010841 68 268 4.0 5.0 0.00 0.00 0.00 39 1008.6
20260904010338 68 297 3.0 5.0 0.00 0.00 0.00 38 1008.1
20260904005833 69 303 4.0 5.0 0.00 0.00 0.00 38 1008.1
20260904005328 70 297 9.0 9.0 0.00 0.00 0.00 36 1008.5
20260904004823 70 308 5.0 7.0 0.00 0.00 0.00 36 1008.2
20260904004320 70 305 11.0 13.0 0.00 0.00 0.00 36 1008.1
20260904003814 71 300 12.0 13.0 0.00 0.00 0.00 35 1008.1
20260904003311 71 287 6.0 7.0 0.00 0.00 0.00 36 1008.1
20260904002806 72 302 8.0 10.0 0.00 0.00 0.00 36 1008.1
20260904002306 72 265 7.0 9.0 0.00 0.00 0.00 36 1008.0
20260904001801 71 290 8.0 10.0 0.00 0.00 0.00 36 1007.9
20260904001256 72 295 12.0 14.0 0.00 0.00 0.00 36 1008.0
20260904000751 72 288 7.0 9.0 0.00 0.00 0.00 36 1007.7
20260904000250 72 254 5.0 7.0 0.00 0.00 0.00 36 1007.6
20260903235750 73 285 8.0 10.0 0.00 0.00 0.00 36 1007.6
20260903235247 73 270 10.0 13.0 0.00 0.00 0.00 36 1007.9
20260903234746 73 296 10.0 13.0 0.00 0.00 0.00 36 1007.7